Location: Milton Keynes
(52.0316°N, 0.7531°W)
Time: 11:14:18
(UTC+01:00)

ISS - Visible Passes

Search period start: 07 May 2021 00:00
Search period end: 17 May 2021 00:00
Orbit: 418 x 421 km, 51.6° (Epoch: 07 May)

Date Brightness Start Highest point End Pass type
(mag) Time Alt. Az. Time Alt. Az. Time Alt. Az.
07 May -3.3 02:35:21 45° SSE 02:35:21 45° SSE 02:38:26 10° E visible
07 May -3.8 04:08:29 10° W 04:11:52 86° S 04:15:16 10° E visible
08 May -1.9 01:49:24 22° ESE 01:49:24 22° ESE 01:50:57 10° E visible
08 May -3.8 03:22:21 21° WSW 03:24:27 80° S 03:27:50 10° E visible
09 May -3.9 02:36:22 52° SW 02:37:02 71° SSE 02:40:25 10° E visible
09 May -3.8 04:10:26 10° W 04:13:50 81° S 04:17:13 10° E visible
10 May -3.2 01:50:22 45° ESE 01:50:22 45° ESE 01:52:58 10° E visible
10 May -3.8 03:23:18 12° W 03:26:24 86° S 03:29:48 10° E visible
11 May -1.7 01:04:21 19° E 01:04:21 19° E 01:05:31 10° E visible
11 May -3.9 02:37:17 27° W 02:38:57 86° S 02:42:21 10° E visible
11 May -3.7 04:12:23 10° W 04:15:43 59° SSW 04:19:03 10° ESE visible
12 May -3.9 01:51:12 69° WSW 01:51:32 80° S 01:54:55 10° E visible
12 May -3.9 03:24:56 10° W 03:28:19 71° SSW 03:31:42 10° ESE visible
13 May -3.1 01:05:02 43° E 01:05:02 43° E 01:07:29 10° E visible
13 May -3.9 02:37:57 13° W 02:40:53 81° S 02:44:17 10° E visible
13 May -3.1 04:14:23 10° W 04:17:31 35° SSW 04:20:37 10° SE visible
14 May -2.1 00:18:38 22° E 00:18:38 22° E 00:20:02 10° E visible
14 May -3.9 01:51:31 24° W 01:53:27 86° S 01:56:51 10° E visible
14 May -3.5 03:26:54 10° W 03:30:10 46° SSW 03:33:25 10° SE visible
14 May -1.9 21:51:31 10° SSE 21:53:07 13° SE 21:54:44 10° ESE visible
14 May -3.6 23:26:04 10° SW 23:29:19 46° SSE 23:32:34 10° E visible
15 May -3.9 01:02:38 10° W 01:06:01 86° S 01:09:24 10° E visible
15 May -3.8 02:39:26 10° W 02:42:47 59° SSW 02:46:07 10° ESE visible
15 May -2.3 04:16:42 10° W 04:19:08 19° SW 04:21:35 10° S visible
15 May -3.2 22:38:53 10° SW 22:41:58 34° SSE 22:45:05 10° E visible
16 May -3.9 00:15:12 10° W 00:18:34 81° S 00:21:58 10° E visible
16 May -3.9 01:51:59 10° W 01:55:22 71° SSW 01:58:44 10° ESE visible
16 May -2.7 03:29:00 10° W 03:31:52 26° SSW 03:34:43 10° SSE visible
16 May -2.7 21:51:49 10° SSW 21:54:39 25° SSE 21:57:30 10° E visible
16 May -3.9 23:27:47 10° WSW 23:31:08 71° S 23:34:31 10° E visible
